[[{"header":{"parameterUnit":"m.s-1","parameterCategory":1,"la1":30.2991,"la2":30.254,"lo1":-89.0895,"lo2":-89.0444,"dy":0.0017,"dx":0.0017,"nx":28,"ny":28,"refTime":"2024-06-15T21:00:00:Z","depth":0,"parameterNumber":2,"parameterNumberName":"U-component_of_WINDS"},"data":[0,0,0,0,0,0,0,0,0,0,0,0,0,0,0,0,0,0,0,0,0,0,0,0,0,0,0,0,0,0,0,0,0,0,0,0,0,0,0,0,0,0,0,0,0,0,0,0,0,0,0,0,0,0,0,0,0,0,-3.2477,-3.2478,0,-3.2553,-3.2553,-3.2554,-3.253,-3.2529,-3.2527,-3.2526,-3.2604,-3.2607,-3.2611,0,0,0,0,0,0,0,0,0,0,0,0,0,-3.2313,-3.2316,-3.2477,-3.2478,-3.2479,-3.2552,-3.2553,-3.2554,-3.2531,-3.2529,-3.2527,-3.2525,-3.2602,-3.2607,-3.2611,0,0,0,0,0,0,0,0,0,0,0,0,0,-3.2386,-3.2317,-3.2477,-3.2476,-3.2476,-3.2552,-3.2553,-3.2555,-3.2531,-3.2529,-3.2526,-3.2524,-3.2601,-3.2606,-3.2612,-3.2693,0,0,-3.2628,-3.263,0,0,0,0,0,0,0,0,-3.2382,-3.2392,-3.2475,-3.2476,-3.2477,-3.253,-3.2524,-3.2601,-3.2532,-3.251,-3.2526,-3.2523,-3.2581,-3.2588,-3.2607,-3.2697,-3.27,-3.2628,-3.2632,-3.2634,-3.2635,0,0,0,0,0,0,0,-3.2377,-3.2389,-3.2507,-3.2476,-3.2477,-3.2472,-3.248,-3.2539,-3.2558,-3.2512,-3.251,-3.252,-3.2581,-3.2602,-3.2609,-3.2701,-3.2628,-3.2633,-3.2636,-3.2638,-3.2862,-3.2865,0,0,0,0,0,0,-3.2371,-3.2385,-3.2504,-3.2509,-3.2422,-3.2477,-3.2485,-3.2515,-3.2558,-3.2562,-3.2522,-3.2518,-3.2594,-3.2603,-3.2612,-3.271,-3.2634,-3.2639,-3.2642,-3.2859,-3.2863,-3.2866,0,0,0,0,0,0,-3.2368,-3.2382,-3.2501,-3.2446,-3.2461,-3.2482,-3.2516,-3.2518,-3.2539,-3.2565,-3.2568,-3.254,-3.2593,-3.2604,-3.2673,-3.2712,-3.2641,-3.2646,-3.2856,-3.286,-3.2864,-3.2907,0,0,0,0,0,0,-3.2363,-3.2381,-3.2411,-3.2447,-3.2464,-3.2561,-3.2518,-3.2521,-3.2548,-3.2544,-3.2583,-3.2587,-3.2592,-3.2665,-3.2678,-3.2718,-3.265,-3.2853,-3.2858,-3.2863,-3.2902,-3.2912,-3.292,0,0,0,0,0,-3.2357,-3.242,-3.2413,-3.2428,-3.2503,-3.2563,-3.2573,-3.2577,-3.2551,-3.2583,-3.26,-3.2585,-3.2706,-3.2673,-3.2687,-3.2729,-3.285,-3.2857,-3.2863,-3.2898,-3.291,-3.292,0,0,0,0,0,0,-3.2388,-3.2425,-3.2417,-3.2494,-3.2526,-3.2559,-3.2598,-3.259,-3.263,-3.2625,-3.2629,-3.2638,-3.2708,-3.2726,-3.2688,-3.2811,-3.2774,-3.2784,-3.2796,-3.2808,-3.2817,-3.281,-3.2655,0,0,0,0,0,-3.2404,-3.245,-3.2479,-3.2544,-3.2561,-3.2577,-3.2603,-3.2604,-3.2637,-3.2651,-3.2673,-3.2706,-3.2751,-3.2781,-3.2824,-3.2905,-3.2913,-3.2941,-3.2951,-3.2958,-3.2965,-3.301,-3.3023,-3.2886,-3.2886,-3.2886,0,0,-3.2437,-3.2463,-3.2491,-3.2551,-3.2576,-3.2623,-3.2588,-3.264,-3.2675,-3.2659,-3.2725,-3.2743,-3.278,-3.2855,-3.289,-3.2872,-3.3006,-3.2966,-3.2971,-3.2975,-3.3018,-3.3031,-3.3042,-3.289,-3.2889,-3.2889,0,0,-3.252,-3.2545,-3.2601,-3.2627,-3.2665,-3.2676,-3.269,-3.2726,-3.2736,-3.2803,-3.2792,-3.2835,-3.2913,-3.294,-3.2964,-3.3061,-3.3049,-3.3075,-3.3122,-3.3165,-3.3176,-3.3186,-3.322,-3.3232,-3.3083,-3.3083,-3.3083,0,-3.2556,-3.2627,-3.2631,-3.2684,-3.2711,-3.2699,-3.2757,-3.2782,-3.2832,-3.2851,-3.2832,-3.293,-3.2954,-3.3036,-3.306,-3.308,-3.3096,-3.3069,-3.3174,-3.3184,-3.3193,-3.3225,-3.3238,-3.3086,-3.3085,-3.3085,-3.3085,0,-3.2669,-3.2719,-3.276,-3.2809,-3.2841,-3.2896,-3.2909,-3.2941,-3.294,-3.2954,-3.3022,-3.3051,-3.3101,-3.3121,-3.312,-3.3203,-3.3191,-3.3173,-3.3136,-3.3209,-3.3239,-3.3252,-3.309,-3.3089,-3.3088,-3.3087,0,0,-3.2772,-3.2824,-3.2839,-3.2862,-3.2904,-3.2942,-3.2998,-3.3046,-3.3073,-3.311,-3.3156,-3.3223,-3.3207,-3.3235,-3.3237,-3.3276,-3.335,-3.3253,-3.3254,-3.3269,-3.3444,-3.3456,-3.347,-3.3344,-3.3346,-3.3348,-3.344,0,-3.2859,-3.2955,-3.2961,-3.3049,-3.3095,-3.3085,-3.3133,-3.3165,-3.3179,-3.3221,-3.3238,-3.3285,-3.326,-3.3277,-3.3315,-3.3333,-3.3385,-3.3327,-3.3387,-3.3389,-3.3376,-3.3486,-3.3499,-3.3585,-3.3452,-3.3454,-3.3456,0,-3.2972,-3.3011,-3.3103,-3.314,-3.3159,-3.3202,-3.3248,-3.3288,-3.3324,-3.3332,-3.3364,-3.3361,-3.3419,-3.3382,-3.3461,-3.3421,-3.3447,-3.346,-3.3464,-3.3468,-3.3425,-3.3493,-3.3612,-3.3624,-3.3475,-3.3473,-3.3472,0,-3.3037,-3.3113,-3.3178,-3.3198,-3.3242,-3.3273,-3.3293,-3.3327,-3.3356,-3.3396,-3.3415,-3.3462,-3.3487,-3.3523,-3.3534,-3.3506,-3.3613,-3.3577,-3.3621,-3.3621,-3.3643,-3.3641,-3.3767,-3.3662,-3.3661,-3.3661,-3.3661,0,-3.3132,-3.3188,-3.3208,-3.3248,-3.3311,-3.3319,-3.3382,-3.34,-3.3431,-3.3474,-3.347,-3.3511,-3.3523,-3.3567,-3.3576,-3.3641,-3.3652,-3.3661,-3.3662,-3.366,-3.3659,-3.3676,-3.367,-3.3665,-3.3664,-3.3663,-3.3663,0,-3.3214,-3.323,-3.33,-3.3337,-3.3348,-3.3393,-3.3424,-3.3463,-3.3478,-3.3533,-3.3547,-3.357,-3.3621,-3.3636,-3.3698,-3.3704,-3.378,-3.3776,-3.3767,-3.3767,-3.381,-3.3806,-3.395,-3.3969,-3.3852,-3.3854,-3.3854,0,-3.3273,-3.3316,-3.3358,-3.3387,-3.3409,-3.3455,-3.3485,-3.3495,-3.3527,-3.3572,-3.3606,-3.3657,-3.3697,-3.378,-3.3803,-3.385,-3.3848,-3.3895,-3.3854,-3.3852,-3.3847,-3.3844,-3.3849,-3.3902,-3.3903,-3.3904,-3.3905,0,-3.3376,-3.3382,-3.3425,-3.3471,-3.3507,-3.3544,-3.3579,-3.3603,-3.3619,-3.3655,-3.3707,-3.3739,-3.3802,-3.3853,-3.3902,-3.3923,-3.3917,-3.3918,-3.3931,-3.3928,-3.3921,-3.3925,-3.3787,-3.3914,-3.3913,-3.3912,-3.3912,-3.3912,-3.3448,-3.3486,-3.3522,-3.357,-3.3598,-3.3632,-3.367,-3.369,-3.3734,-3.3786,-3.379,-3.3847,-3.3884,-3.3948,-3.3972,-3.4018,-3.4004,-3.4022,-3.4027,-3.4031,-3.4034,-3.3915,-3.4027,-3.4026,-3.4026,-3.4026,-3.4026,0,-3.355,-3.3573,-3.3618,-3.3667,-3.3706,-3.3697,-3.3737,-3.3769,-3.3819,-3.3854,-3.3895,-3.3955,-3.4005,-3.4032,-3.4082,-3.4113,-3.4111,-3.4126,-3.4123,-3.4128,-3.4044,-3.4027,-3.4126,-3.4126,-3.4126,-3.4126,-3.4126,-3.4126,-3.3608,-3.3672,-3.3682,-3.3761,-3.3783,-3.3839,-3.3862,-3.3893,-3.3921,-3.3989,-3.403,-3.4048,-3.408,-3.4132,-3.4177,-3.4184,-3.4202,-3.4218,-3.4223,-3.4144,-3.4134,-3.4124,-3.4108,-3.4222,-3.4222,-3.4303,-3.4304,-3.4305]},{"header":{"parameterUnit":"m.s-1","parameterCategory":1,"la1":30.2991,"la2":30.254,"lo1":-89.0895,"lo2":-89.0444,"dy":0.0017,"dx":0.0017,"nx":28,"ny":28,"refTime":"2024-06-15T21:00:00:Z","depth":0,"parameterNumber":3,"parameterNumberName":"V-component_of_WINDS"},"data":[0,0,0,0,0,0,0,0,0,0,0,0,0,0,0,0,0,0,0,0,0,0,0,0,0,0,0,0,0,0,0,0,0,0,0,0,0,0,0,0,0,0,0,0,0,0,0,0,0,0,0,0,0,0,0,0,0,0,3.372,3.3721,0,3.3768,3.3768,3.3769,3.3735,3.3733,3.3732,3.373,3.3776,3.3778,3.3781,0,0,0,0,0,0,0,0,0,0,0,0,0,3.3597,3.36,3.372,3.3721,3.3721,3.3768,3.3768,3.3769,3.3735,3.3733,3.3731,3.373,3.3775,3.3778,3.3781,0,0,0,0,0,0,0,0,0,0,0,0,0,3.3648,3.36,3.372,3.371,3.371,3.3768,3.3768,3.3769,3.3736,3.3733,3.3731,3.3729,3.3774,3.3778,3.3781,3.3851,0,0,3.3793,3.3795,0,0,0,0,0,0,0,0,3.3645,3.3653,3.3711,3.3711,3.371,3.3743,3.3742,3.3796,3.3736,3.3726,3.373,3.3728,3.3766,3.3771,3.3785,3.3853,3.3855,3.3794,3.3796,3.3798,3.3799,0,0,0,0,0,0,0,3.3642,3.3651,3.3739,3.3712,3.3711,3.3702,3.3707,3.3752,3.3758,3.3726,3.3724,3.373,3.3766,3.3781,3.3785,3.3855,3.3794,3.3797,3.3799,3.3801,3.3984,3.3986,0,0,0,0,0,0,3.364,3.3648,3.3737,3.374,3.3672,3.3707,3.3712,3.3735,3.3757,3.3759,3.3732,3.3729,3.3775,3.3781,3.3787,3.387,3.3798,3.3801,3.3804,3.3981,3.3984,3.3987,0,0,0,0,0,0,3.3637,3.3648,3.3735,3.3693,3.3704,3.3711,3.3737,3.3737,3.3752,3.3762,3.3762,3.3747,3.3774,3.3781,3.3836,3.3871,3.3803,3.3807,3.3978,3.3982,3.3986,3.4036,0,0,0,0,0,0,3.3634,3.3647,3.3674,3.3694,3.3706,3.3784,3.3739,3.374,3.3759,3.3755,3.3776,3.3777,3.3773,3.383,3.3839,3.3875,3.381,3.3975,3.398,3.3985,3.4031,3.4041,3.4049,0,0,0,0,0,3.363,3.3685,3.3675,3.3686,3.374,3.3786,3.3793,3.3788,3.3762,3.3789,3.3796,3.3776,3.3866,3.3836,3.3846,3.3883,3.3973,3.3979,3.3984,3.4027,3.4039,3.4049,0,0,0,0,0,0,3.3666,3.3687,3.3677,3.3741,3.3762,3.378,3.3813,3.38,3.3828,3.3823,3.3815,3.382,3.3877,3.3886,3.3852,3.3952,3.3915,3.3923,3.3944,3.3955,3.3964,3.396,3.3813,0,0,0,0,0,3.3682,3.3719,3.3735,3.379,3.3801,3.3806,3.3826,3.3821,3.3842,3.385,3.386,3.3881,3.3914,3.3935,3.3966,3.4033,3.4037,3.4064,3.4073,3.408,3.4087,3.4123,3.4135,3.4006,3.4006,3.4006,0,0,3.3715,3.3731,3.3754,3.3798,3.3813,3.3851,3.3813,3.3854,3.3882,3.3856,3.3908,3.3917,3.3939,3.4,3.4027,3.4009,3.4124,3.4087,3.4093,3.4096,3.413,3.4142,3.4153,3.401,3.4009,3.4008,0,0,3.3793,3.3809,3.3857,3.3874,3.39,3.3903,3.3915,3.3935,3.3941,3.3993,3.3975,3.4007,3.4064,3.4081,3.4097,3.4185,3.4168,3.4195,3.4242,3.4278,3.4288,3.4297,3.4328,3.4339,3.4202,3.4202,3.4202,0,3.3829,3.3886,3.3883,3.3926,3.3945,3.3926,3.3974,3.3991,3.4025,3.4038,3.4018,3.409,3.4104,3.4169,3.4191,3.4204,3.4217,3.4192,3.4287,3.4296,3.4304,3.4334,3.4346,3.4205,3.4205,3.4205,3.4204,0,3.393,3.397,3.4005,3.404,3.4064,3.4109,3.4112,3.4137,3.4131,3.4136,3.419,3.4207,3.4241,3.4256,3.425,3.4321,3.4309,3.4288,3.4251,3.432,3.4347,3.4359,3.421,3.4209,3.4208,3.4207,0,0,3.403,3.4065,3.4078,3.4094,3.4122,3.4152,3.4197,3.4232,3.4253,3.4278,3.4315,3.4365,3.4347,3.4365,3.436,3.4392,3.4461,3.4367,3.4368,3.4383,3.454,3.4555,3.4568,3.4451,3.4453,3.4455,3.4538,0,3.4109,3.4188,3.4188,3.4261,3.4298,3.4281,3.432,3.4342,3.4349,3.438,3.4387,3.4423,3.4396,3.4407,3.4438,3.4446,3.4492,3.444,3.4484,3.4486,3.4478,3.4583,3.4598,3.4676,3.4549,3.4551,3.4552,0,3.4211,3.4242,3.4319,3.4343,3.4358,3.4394,3.4427,3.4458,3.4482,3.4484,3.4507,3.4498,3.4543,3.4506,3.4568,3.4533,3.4552,3.4559,3.4561,3.4564,3.4522,3.4587,3.4701,3.4712,3.4569,3.4568,3.4567,0,3.4276,3.4336,3.439,3.4405,3.4434,3.446,3.4473,3.4495,3.4517,3.4545,3.4559,3.4593,3.4611,3.4637,3.4637,3.461,3.47,3.4663,3.4703,3.4703,3.4721,3.4719,3.4838,3.4735,3.4735,3.4735,3.4734,0,3.4364,3.4412,3.442,3.4453,3.4507,3.4506,3.4558,3.4569,3.4589,3.4624,3.4612,3.4645,3.4644,3.4677,3.4678,3.4729,3.4738,3.4741,3.474,3.4741,3.4741,3.4752,3.4746,3.4738,3.4737,3.4736,3.4736,0,3.4444,3.4452,3.451,3.4534,3.4542,3.458,3.46,3.4632,3.4639,3.4683,3.4693,3.4704,3.4742,3.4746,3.479,3.4791,3.4853,3.4847,3.4845,3.4844,3.4884,3.488,3.5013,3.503,3.4916,3.4917,3.4918,0,3.4499,3.4536,3.4565,3.4589,3.4604,3.4641,3.4664,3.4665,3.4689,3.4721,3.4749,3.4787,3.4817,3.4879,3.489,3.4925,3.4919,3.4963,3.4923,3.4924,3.4919,3.4916,3.492,3.497,3.4971,3.4972,3.4973,0,3.4596,3.4599,3.4633,3.4669,3.4697,3.4725,3.4751,3.4771,3.4775,3.4803,3.4843,3.4867,3.4914,3.4952,3.4986,3.4999,3.4987,3.4986,3.4997,3.4998,3.4995,3.4997,3.4865,3.4982,3.4981,3.4981,3.498,3.498,3.4665,3.4697,3.4723,3.4762,3.4783,3.4808,3.4839,3.4851,3.4885,3.4924,3.4923,3.4968,3.4992,3.5037,3.5053,3.5087,3.5072,3.5088,3.5092,3.5096,3.51,3.4991,3.5094,3.5093,3.5093,3.5093,3.5093,0,3.4761,3.4777,3.4813,3.4851,3.4882,3.4871,3.49,3.4926,3.4965,3.499,3.5021,3.5068,3.5105,3.512,3.5156,3.5181,3.5177,3.5191,3.5188,3.5191,3.5111,3.5098,3.5194,3.5194,3.5194,3.5194,3.5194,3.5194,3.4814,3.4868,3.4874,3.4939,3.4955,3.5,3.5017,3.5041,3.5061,3.5114,3.5146,3.5156,3.5177,3.5215,3.5248,3.5252,3.5265,3.5282,3.5283,3.5207,3.5197,3.5187,3.5174,3.5285,3.5285,3.536,3.5361,3.5361]}]]